Theta_e
314 314 320 323 323 325 327 329 330 337 339 327 325 321 316 323 323 323 323 321 322 322 322 321 321 320 319 321 320 322 323 324 327 325 328 337 331 326 326 326 330 331 335 341 338 335 335 337 340 342 342 341 342 342 343 342 342 342 342 342 341 341 341 336 335 335 335 335 335 335 334 334 334 334 335 335 336 337 338 338 339 339 340 340 340 340 340 339 336 334 332 329 327 326 325 324 324
317 318 322 322 324 324 330 336 332 339 339 319 319 320 316 326 324 323 326 323 326 324 323 323 321 322 320 321 319 321 321 320 325 324 329 332 326 326 324 327 331 331 336 340 338 335 335 337 339 341 341 341 342 342 342 342 342 342 341 341 340 340 339 335 335 336 337 337 336 336 335 335 333 334 335 335 336 336 337 337 338 339 339 339 339 340 339 339 338 336 334 330 327 327 326 326 326
322 321 322 321 324 325 338 341 334 338 331 315 318 325 319 321 323 324 329 325 327 324 322 322 321 322 320 322 320 321 322 320 328 335 336 328 326 326 323 329 332 332 336 338 339 335 335 337 339 341 340 341 341 341 342 342 342 341 341 341 340 340 338 335 337 337 338 338 337 336 335 335 334 335 335 335 335 336 336 336 338 338 338 338 339 339 339 339 338 337 336 333 330 329 328 328 329
324 324 323 323 330 335 345 339 338 338 323 318 318 324 326 322 324 325 328 326 325 322 321 322 321 321 319 322 320 319 321 321 325 336 337 326 325 323 323 331 333 334 336 338 339 336 335 336 338 339 340 341 341 341 341 341 341 341 341 341 339 338 336 336 338 338 338 337 336 337 337 336 336 336 336 335 335 336 336 336 338 338 338 338 338 339 339 338 337 336 335 334 333 331 330 331 330
323 325 322 324 332 334 338 330 335 331 319 325 318 320 329 324 325 322 324 324 322 321 322 322 321 320 318 321 321 320 321 320 320 326 327 323 325 323 324 331 333 335 335 338 339 338 336 335 337 338 340 341 341 341 341 341 341 341 340 339 336 335 335 336 338 338 338 337 336 337 337 337 337 338 338 337 336 336 336 336 336 337 338 338 338 338 338 336 336 334 332 332 334 334 332 332 330
322 325 323 323 322 324 333 324 325 327 325 332 321 320 325 323 324 320 321 321 321 321 321 321 321 320 320 322 320 319 321 320 322 326 324 323 328 324 323 328 333 336 336 338 339 338 336 335 336 337 339 340 341 341 341 341 341 341 340 335 332 334 336 337 337 338 338 336 338 338 337 339 339 338 338 338 337 337 336 336 336 337 337 337 338 337 337 335 334 333 331 329 332 334 333 331 327
322 323 327 329 322 325 334 323 325 332 327 325 324 324 321 322 323 320 321 319 321 320 320 321 320 319 320 321 318 319 321 321 322 327 324 322 326 324 324 326 332 336 337 338 338 338 336 335 336 337 338 338 341 341 341 341 341 341 338 332 332 337 337 337 337 338 337 336 338 339 338 338 338 338 338 338 337 336 337 336 336 337 337 337 337 336 335 334 333 331 329 327 328 332 331 326 320
323 322 329 338 334 334 333 323 330 333 323 320 323 323 320 323 323 322 323 320 320 320 321 322 320 320 319 319 321 321 320 321 322 324 324 321 321 324 324 325 330 335 337 338 338 338 336 335 335 337 337 338 340 340 340 340 341 341 338 333 335 338 337 338 337 337 337 335 338 338 337 337 338 338 338 339 337 335 336 336 337 337 337 336 335 335 334 332 332 330 329 326 325 328 325 316 309
322 320 327 335 333 337 337 329 327 325 323 323 318 319 320 322 324 323 322 321 320 322 323 322 320 320 320 320 324 322 319 323 322 322 323 321 320 322 324 324 326 331 336 339 339 338 336 335 334 335 336 337 339 339 340 340 340 340 338 335 337 338 338 338 336 337 336 336 338 338 337 337 338 338 339 338 337 335 335 336 336 336 335 335 334 333 332 331 331 329 328 326 323 322 314 305 302
326 322 326 335 333 331 331 330 327 322 323 325 320 320 321 319 322 323 322 320 320 321 322 320 319 319 320 320 323 321 320 323 321 321 321 321 321 321 324 324 324 327 333 339 340 339 336 335 334 335 335 336 338 339 338 339 340 339 338 336 337 338 338 338 337 338 337 336 338 338 337 337 338 338 339 338 336 336 335 335 334 335 334 334 334 333 332 331 330 329 327 325 320 313 304 299 299
336 333 335 339 333 326 325 327 329 327 326 326 322 322 322 320 322 322 322 319 319 321 320 319 319 321 320 321 326 322 321 323 320 319 319 321 321 321 324 325 327 326 329 335 338 339 337 335 334 334 335 336 337 337 337 338 339 339 338 336 337 338 337 337 336 338 338 338 338 338 337 337 338 338 338 338 337 336 334 335 333 333 333 332 332 331 331 330 330 328 327 324 313 303 299 299 299
334 338 346 339 327 325 327 327 326 331 334 325 321 322 320 320 322 320 321 319 319 320 320 320 318 320 320 324 327 320 320 323 319 318 318 320 321 321 324 328 329 329 330 332 335 338 338 337 335 335 335 335 336 336 336 337 339 339 338 337 338 337 337 336 335 337 337 338 338 338 336 336 338 338 338 337 337 336 334 334 333 332 331 331 330 330 329 328 328 326 326 323 307 299 298 298 298
331 333 341 328 325 327 324 326 330 335 336 325 319 321 318 318 321 320 320 319 318 318 319 321 318 318 320 323 325 322 322 321 319 318 316 319 321 321 325 330 331 332 333 332 334 336 339 339 336 335 335 335 336 336 336 336 339 338 337 338 339 337 337 336 334 336 337 337 337 337 336 337 338 338 338 337 336 335 334 333 332 332 330 330 329 328 328 327 326 325 326 319 305 299 298 298 298
328 332 334 321 326 330 322 325 330 326 324 325 323 321 319 318 321 322 320 318 319 318 317 319 317 317 318 319 327 334 327 318 318 318 317 320 322 321 324 329 330 332 335 334 334 335 338 340 338 336 335 336 336 337 337 336 337 337 336 339 339 338 338 337 334 335 337 337 336 336 336 337 338 338 338 337 336 335 334 333 333 331 328 329 329 327 326 326 325 325 324 315 304 299 297 298 298
323 339 340 326 327 330 325 322 324 322 317 325 323 317 318 317 319 320 318 316 319 318 315 316 315 316 318 315 324 333 323 318 320 319 318 321 323 323 325 328 328 329 333 335 334 335 337 339 339 338 336 336 336 337 338 336 336 336 337 339 340 339 338 338 336 334 335 336 335 335 335 337 338 338 338 337 336 335 334 333 332 330 326 326 327 326 326 325 324 324 322 314 304 299 297 298 298
330 344 337 327 327 325 325 322 325 326 318 324 323 316 318 317 317 317 317 316 318 318 315 316 315 315 318 317 318 319 318 320 322 320 319 322 325 325 328 329 329 328 331 335 334 334 337 339 339 339 338 338 337 337 337 336 336 336 337 338 339 340 339 338 337 335 334 335 335 335 335 336 337 338 337 337 336 335 334 333 331 329 326 325 324 325 325 324 324 323 320 312 303 298 297 298 297
339 341 329 326 327 325 327 324 322 322 319 325 325 317 317 318 318 316 315 315 318 319 317 318 315 315 318 318 315 314 318 321 321 321 321 325 328 329 331 330 330 331 332 335 335 335 337 338 339 339 339 338 338 337 336 336 336 336 336 337 339 339 339 338 337 336 334 334 334 334 335 336 337 338 337 337 337 335 334 332 331 329 328 325 323 323 324 324 323 321 317 308 302 297 297 297 297
338 333 323 324 329 329 331 325 318 318 319 320 320 317 316 318 319 317 315 317 319 319 318 318 315 315 316 314 313 315 318 321 322 322 324 327 328 330 332 331 330 332 333 335 335 335 336 337 338 338 339 339 338 338 337 336 336 337 336 337 338 338 338 338 337 336 335 334 334 334 335 336 337 337 337 337 336 335 334 332 330 329 328 326 323 322 323 323 322 320 313 304 300 297 297 297 297
333 332 323 330 337 332 330 323 317 317 317 317 320 318 316 317 317 315 316 318 319 318 317 316 316 316 315 313 312 315 318 320 322 322 325 327 327 329 330 331 331 330 331 333 333 335 336 336 337 337 337 338 338 338 337 337 336 337 337 337 337 337 338 337 336 336 336 335 335 334 335 336 337 337 336 336 336 335 334 332 330 329 328 326 324 322 321 322 321 320 313 303 298 297 297 297 297
330 329 324 338 340 330 326 322 319 317 316 317 320 318 317 318 317 315 315 318 318 317 316 315 316 316 316 316 313 316 320 320 322 322 323 325 326 326 326 328 330 327 325 326 329 332 334 335 335 336 336 336 337 337 337 337 337 336 337 337 338 338 338 337 336 336 336 336 335 334 335 336 336 336 335 335 335 335 334 332 331 329 328 326 325 322 321 321 321 320 316 305 298 297 296 297 297
324 324 327 339 331 324 326 325 322 318 316 317 318 318 318 318 317 316 315 317 317 316 316 316 316 315 316 317 313 316 319 319 321 322 321 321 322 322 322 323 323 322 320 321 324 327 330 332 333 334 335 335 336 336 337 337 337 336 336 337 338 338 338 338 337 337 337 336 336 335 335 336 336 336 335 335 335 335 334 332 330 329 327 326 325 323 321 320 319 319 316 305 298 297 296 297 297
321 323 328 333 324 320 323 324 321 317 317 317 318 318 317 317 317 316 316 316 316 315 316 316 317 316 315 314 311 314 318 319 318 319 319 318 318 319 319 319 319 319 319 320 320 321 324 327 330 332 333 335 334 335 335 336 336 336 336 337 337 338 337 337 337 337 336 336 336 335 335 336 336 336 335 335 335 334 333 332 330 328 327 326 325 324 322 320 319 317 313 305 299 297 296 296 297
322 323 324 327 322 319 320 320 319 317 316 316 318 317 315 316 317 316 317 316 316 315 316 316 315 313 312 312 311 314 322 324 317 316 319 318 318 318 318 318 319 319 319 319 318 319 320 322 326 331 332 333 333 334 334 335 335 334 335 336 337 337 337 337 337 337 336 336 335 335 335 335 336 336 335 335 334 334 333 331 329 328 327 326 325 324 323 321 319 316 312 307 301 298 297 296 297
321 323 324 323 320 320 320 318 318 317 315 316 316 314 314 315 316 317 317 315 315 314 315 313 311 310 309 311 313 314 316 315 312 313 315 316 317 317 317 318 318 319 319 318 318 319 319 320 323 327 331 331 332 333 333 333 333 332 333 335 336 336 336 336 336 336 336 336 335 335 335 335 335 335 335 335 334 333 331 330 328 327 326 326 325 324 323 322 320 316 312 309 303 299 297 296 297
320 320 320 319 318 320 320 317 317 317 316 315 314 314 314 314 313 315 315 314 314 314 313 313 312 311 311 312 313 312 310 308 307 308 309 310 311 313 314 315 316 318 318 319 319 319 319 319 321 324 327 329 331 332 334 334 333 332 333 334 335 335 336 336 335 336 336 336 335 334 335 334 334 334 334 334 333 332 330 328 327 327 326 325 325 324 323 322 320 317 313 310 305 300 297 296 297
318 316 315 315 316 316 316 315 316 316 314 313 313 315 314 313 313 314 316 316 315 314 313 315 314 314 314 310 308 308 309 308 306 307 307 307 308 309 310 311 313 315 316 318 319 320 321 320 321 322 324 327 330 332 333 334 334 333 333 334 335 335 336 336 336 335 335 335 335 334 334 334 334 334 334 333 332 330 329 328 327 326 326 325 325 324 323 322 320 317 313 311 307 302 298 296 296
315 313 314 315 316 315 314 315 315 313 313 313 313 315 314 313 314 314 317 319 315 313 315 314 312 314 312 308 306 306 307 307 306 307 307 307 307 306 307 309 311 313 315 316 317 318 321 321 322 322 323 325 328 331 332 333 334 334 334 334 335 336 336 336 336 335 335 335 335 335 334 334 334 334 334 333 331 330 329 328 327 326 326 325 325 324 323 321 319 317 314 311 309 304 301 297 296
313 313 315 317 316 315 314 315 314 312 314 315 315 315 314 313 314 316 317 317 314 313 315 313 312 313 310 307 307 307 307 307 306 306 306 306 306 305 306 307 309 313 315 316 316 317 318 320 322 323 323 325 327 329 330 332 333 334 334 334 335 335 336 336 335 335 334 334 334 335 335 334 334 333 333 332 331 330 328 328 327 326 326 325 325 324 323 320 318 316 315 314 312 308 304 300 297
313 313 314 317 316 316 315 314 313 312 314 316 314 315 317 315 316 318 316 314 313 314 314 312 311 310 308 307 308 307 306 305 305 305 305 305 305 305 306 306 309 313 315 317 317 317 317 319 322 324 325 326 327 327 329 331 332 333 334 334 334 335 335 335 335 334 334 333 333 334 334 334 334 333 332 331 330 329 328 328 327 326 326 325 324 323 322 320 317 316 316 316 315 311 306 302 297
314 313 313 315 316 318 317 314 313 313 314 315 313 316 323 322 318 317 316 312 312 314 313 311 310 307 306 307 307 305 304 304 304 304 304 304 304 305 305 307 309 313 316 317 318 318 317 319 322 325 326 327 327 327 329 330 331 332 332 333 333 334 334 334 334 334 333 333 333 332 333 333 333 332 331 330 330 329 328 328 327 326 325 324 324 323 322 319 316 316 316 317 316 312 308 302 298
314 312 316 317 315 322 323 314 314 315 315 314 313 316 322 323 319 318 315 310 311 314 312 309 308 307 307 307 305 305 304 303 303 303 303 303 304 304 305 307 310 313 316 318 319 319 319 320 323 326 327 328 328 328 329 330 331 331 331 332 332 332 332 333 333 333 333 332 332 332 331 332 332 332 331 330 329 329 328 327 327 326 325 324 324 323 321 318 316 315 316 316 315 313 310 303 299
319 314 324 325 316 322 324 315 316 317 315 312 312 317 319 318 319 320 317 310 310 312 311 310 309 308 307 306 305 304 303 302 302 302 302 302 303 304 304 306 308 311 314 316 318 320 321 322 324 326 327 328 329 329 329 330 331 331 331 331 330 331 330 331 331 331 331 331 331 330 330 330 331 331 331 330 329 329 328 327 326 326 325 324 323 322 320 318 316 315 316 316 314 313 310 304 299
326 317 324 328 319 318 319 318 318 316 314 312 312 317 317 317 319 319 317 312 311 311 310 310 309 308 306 305 304 303 302 301 301 301 301 301 302 302 303 304 306 308 310 312 314 316 319 321 322 324 325 326 327 328 329 329 329 330 330 330 330 330 329 330 330 329 330 329 330 329 329 329 330 330 330 329 329 328 328 327 326 325 325 324 323 321 319 318 316 315 316 315 314 313 310 304 300
329 321 319 324 319 316 317 320 319 315 315 314 314 315 314 317 317 316 314 311 311 311 311 311 308 307 306 304 303 302 302 301 300 300 300 300 301 301 302 303 305 307 308 310 311 313 315 317 318 320 322 324 325 326 327 327 328 328 328 328 328 328 328 329 328 328 328 328 328 328 328 328 328 329 329 328 328 327 327 326 326 325 324 323 322 321 319 318 317 316 316 315 314 313 311 306 301
327 324 320 321 320 317 317 319 319 317 316 316 317 316 316 316 315 315 312 310 312 312 311 309 307 306 305 304 303 302 301 301 300 300 299 299 300 300 301 302 303 305 306 308 309 310 312 314 315 318 321 322 323 324 324 325 325 326 326 326 326 326 327 327 328 327 327 327 327 327 327 327 327 328 327 327 327 327 326 325 325 324 324 323 322 320 319 318 317 317 316 315 314 313 311 308 303
321 321 319 320 319 318 317 316 317 316 315 317 318 317 317 317 317 316 311 310 313 312 310 308 306 305 304 303 303 302 301 301 300 299 299 299 299 299 300 301 302 303 304 306 307 308 309 311 313 315 317 318 320 322 322 323 323 323 324 324 324 324 325 325 325 325 325 325 325 325 325 325 325 326 326 326 326 325 325 324 324 324 323 322 321 320 319 318 318 317 316 315 314 312 309 305 302
315 316 316 317 317 316 315 316 319 315 314 319 318 316 318 318 317 313 309 314 315 311 310 307 305 305 303 303 302 301 301 300 299 298 298 298 298 299 299 300 301 302 303 304 305 306 306 308 309 310 312 314 315 317 319 320 321 321 321 322 322 322 322 323 322 322 322 323 322 322 322 323 323 324 324 325 324 324 324 323 323 323 322 321 321 320 319 319 318 317 316 314 312 310 307 304 300
313 314 315 317 317 317 316 317 318 314 314 321 320 315 319 319 314 310 310 315 312 308 308 306 305 305 303 303 302 301 301 299 299 298 298 298 298 298 298 298 299 300 300 302 303 303 305 306 306 307 309 311 311 312 313 315 316 318 319 319 319 320 320 320 320 320 320 320 320 320 319 320 320 321 322 322 323 323 322 322 322 321 321 320 320 319 318 317 317 316 315 312 310 308 306 304 300
314 316 316 319 319 319 320 319 318 316 314 322 323 316 318 317 311 308 309 310 307 305 306 305 304 304 302 302 302 301 300 299 298 297 297 297 297 297 297 297 297 298 298 300 301 302 303 304 304 305 307 307 308 309 310 310 312 314 316 316 317 317 317 317 318 318 318 318 317 317 317 317 317 317 318 318 319 319 319 320 319 319 319 318 318 317 316 316 315 315 313 311 309 306 304 302 300
317 318 318 320 319 318 323 322 320 318 314 318 319 316 318 315 310 309 307 306 305 304 304 304 303 303 302 301 300 300 299 299 298 297 296 296 296 296 296 296 296 297 297 298 299 300 300 301 302 304 304 305 306 307 307 308 309 310 311 312 313 313 312 313 315 314 313 313 312 312 312 312 312 312 313 313 314 315 315 315 316 316 315 315 314 314 315 314 314 313 312 311 308 304 303 301 300
322 323 319 320 319 319 322 321 320 320 317 317 315 319 327 321 314 312 308 306 305 304 303 303 303 302 301 300 299 299 298 297 297 296 295 295 295 295 295 295 295 296 296 296 297 298 299 300 301 302 303 304 304 305 306 306 307 308 308 308 308 308 308 308 309 308 308 308 307 307 307 306 306 307 307 308 309 310 310 311 312 312 312 312 312 311 311 312 312 312 311 310 307 305 304 302 300
323 326 322 319 320 321 321 320 320 323 323 318 313 322 335 330 319 314 310 308 306 304 304 303 302 301 300 299 299 298 297 297 295 295 294 294 294 294 294 294 294 294 295 295 295 296 297 299 300 301 301 302 303 303 305 305 305 305 305 305 304 304 304 303 303 305 306 307 307 306 304 304 303 303 303 304 304 305 306 307 308 308 309 309 309 309 309 309 309 309 309 308 307 306 305 302 300
321 324 322 321 322 321 320 318 319 324 325 318 314 319 328 329 321 314 312 310 306 304 304 303 301 300 299 298 297 297 296 296 295 294 293 293 293 293 293 293 293 293 294 294 294 295 296 297 298 299 299 300 301 301 303 303 303 303 303 302 301 301 300 300 301 302 304 305 306 305 304 304 303 303 302 302 302 302 302 303 304 305 305 306 306 306 306 306 306 307 307 306 306 305 303 300 299
324 322 323 325 321 319 321 318 317 322 321 320 320 316 318 322 319 314 313 312 308 305 304 302 301 300 298 297 296 296 295 295 295 294 293 292 292 292 292 292 292 292 293 294 294 294 294 295 296 297 297 298 299 300 301 301 301 301 301 300 300 300 299 299 300 301 301 302 303 303 303 303 303 303 303 302 302 301 301 301 301 302 302 303 303 304 304 304 304 304 304 303 304 303 302 300 299
325 322 321 321 318 319 322 318 319 319 314 322 327 316 315 322 322 317 312 313 312 306 304 302 301 299 298 297 296 295 295 294 294 293 292 291 291 292 292 292 292 292 292 293 293 293 293 294 295 296 296 296 297 298 299 299 299 299 299 299 299 298 298 299 300 300 300 300 300 300 300 301 301 302 302 302 302 301 301 300 300 300 300 300 301 301 301 302 302 302 302 301 301 301 301 300 299
320 318 320 323 323 322 320 318 321 319 315 322 325 318 318 324 328 323 314 314 316 308 303 302 300 299 297 296 296 295 295 294 293 292 291 291 291 291 291 291 291 291 292 292 292 292 292 293 294 295 294 294 295 296 297 297 297 297 297 297 297 297 297 298 298 298 298 298 298 298 298 298 299 299 300 300 300 300 300 300 300 300 300 299 299 299 299 300 300 300 301 301 300 300 299 299 299
315 318 322 327 328 325 323 323 322 319 321 325 323 319 318 321 331 327 315 314 313 307 303 301 299 298 297 296 296 295 295 294 293 291 290 291 291 291 291 291 290 291 291 291 291 291 291 291 292 292 292 293 294 294 295 295 295 295 295 295 295 295 295 296 296 295 295 296 296 296 296 296 297 297 297 298 298 298 299 299 299 299 300 299 299 299 298 298 298 298 299 299 300 299 299 298 298
317 322 324 325 328 327 326 325 321 320 327 329 322 318 316 320 329 322 311 308 308 306 304 300 299 298 297 296 295 295 294 294 294 293 291 290 290 290 290 290 290 290 290 290 290 290 290 290 290 290 290 291 291 292 292 292 292 292 292 292 292 292 292 292 291 291 291 292 291 292 293 293 294 294 295 295 296 296 297 298 298 299 299 299 299 299 298 298 298 297 298 298 298 298 298 298 298
319 322 323 324 324 324 326 325 322 324 326 323 319 317 316 321 321 312 305 304 305 306 303 299 298 297 297 296 295 295 294 293 293 293 291 289 289 289 289 289 289 289 289 289 289 289 289 289 289 289 288 288 289 289 289 289 289 289 289 289 289 289 289 289 288 288 288 288 288 288 288 288 289 289 290 291 292 293 294 295 296 297 298 298 298 298 298 298 297 297 297 297 297 297 297 298 298
316 318 322 325 323 325 330 327 320 322 324 319 317 318 320 325 318 305 302 301 301 302 301 298 297 296 296 296 296 295 294 294 293 292 291 288 288 289 288 289 288 288 288 288 288 288 288 288 288 287 287 287 287 287 287 287 287 287 287 287 287 287 287 286 286 286 286 286 286 286 286 286 286 286 286 287 288 289 290 291 293 294 295 296 296 296 296 296 296 296 296 296 296 296 296 297 297
314 318 320 322 326 329 331 328 323 325 326 320 316 318 326 329 315 302 300 299 298 299 298 297 297 297 297 296 296 296 294 294 293 292 290 288 288 289 288 289 289 288 288 288 288 287 287 287 287 287 287 287 287 286 286 286 286 286 286 286 286 286 286 286 286 286 286 286 286 286 286 286 286 286 286 286 286 287 287 288 289 289 290 292 293 293 294 294 295 295 295 295 295 295 295 296 296
314 316 318 319 325 326 323 324 324 323 323 321 319 322 322 316 306 299 300 299 298 298 297 297 298 297 296 297 296 295 295 294 293 293 290 288 288 289 289 289 289 289 288 288 288 287 287 287 287 287 287 287 287 287 287 287 286 286 286 286 287 287 287 287 287 287 287 287 287 287 287 287 287 287 287 287 287 287 287 287 287 287 287 287 288 289 290 291 292 293 294 294 294 295 295 295 295
315 314 320 321 320 321 322 322 320 317 319 320 321 321 314 309 306 302 300 300 299 298 298 297 298 297 297 297 297 296 295 294 294 293 290 288 288 289 289 290 290 289 289 288 288 287 287 287 287 287 287 287 287 287 287 287 287 287 287 287 287 287 287 287 287 287 287 288 288 287 287 287 288 288 288 288 288 288 288 287 287 287 287 287 287 287 287 287 288 289 290 291 292 293 293 294 294
319 318 322 319 315 320 324 323 321 320 320 319 320 321 317 316 315 304 300 302 300 298 299 298 298 298 298 298 297 296 295 294 293 291 289 288 289 289 290 290 290 290 289 288 288 288 287 287 287 287 287 287 287 287 287 287 287 287 287 287 287 287 287 287 287 287 287 287 287 287 287 287 287 287 287 287 287 287 287 287 287 287 287 287 287 287 287 287 286 286 287 287 289 290 291 292 293
318 321 319 316 319 324 322 320 322 322 319 320 324 322 317 318 317 309 306 305 301 299 299 299 298 298 299 298 297 296 295 294 293 292 290 289 289 290 290 290 290 289 289 288 288 288 288 288 287 287 287 288 288 288 288 288 288 288 288 288 288 287 288 287 287 287 287 287 287 287 287 287 287 287 287 287 287 287 287 287 287 287 287 287 287 287 287 287 287 287 287 286 286 286 287 288 290
314 316 315 316 320 322 320 318 321 322 318 320 322 318 319 322 319 317 313 304 300 300 300 299 299 299 299 298 297 296 296 294 294 294 292 290 290 290 290 290 289 289 289 288 288 288 288 288 288 288 288 288 288 288 288 288 288 288 288 288 288 288 288 288 288 287 287 287 287 287 287 287 287 287 286 287 286 287 287 286 286 286 286 286 286 286 286 286 287 287 287 287 287 286 286 286 286
316 317 317 317 317 318 319 317 318 322 321 321 319 316 321 323 314 314 313 303 299 300 300 300 300 299 299 298 297 296 295 294 294 295 292 290 290 290 290 290 290 289 289 289 288 288 288 288 288 288 288 288 288 288 288 288 288 288 288 288 288 288 287 287 287 287 287 287 287 287 286 286 286 286 286 286 286 286 286 286 286 285 285 285 285 285 285 285 285 286 286 286 287 287 287 286 286
323 323 320 320 320 319 319 317 318 320 319 321 318 316 321 318 308 307 308 302 300 300 300 301 301 301 300 298 296 295 295 295 295 294 292 290 291 291 291 291 290 290 290 289 288 288 288 288 288 288 288 288 288 288 288 288 288 288 288 287 287 287 287 287 287 287 287 287 286 286 286 286 286 285 285 285 285 285 285 285 285 284 284 284 284 284 284 284 284 284 285 285 285 286 286 286 286
Wind_Speed
9 8 7 7 8 7 4 5 2 2 4 2 2 1 2 3 0 2 0 2 1 3 4 2 2 2 1 2 5 5 5 5 5 4 3 5 2 10 18 18 9 13 21 22 27 30 30 29 28 27 25 24 23 23 22 20 19 18 18 17 16 14 13 13 13 13 12 12 11 10 9 10 9 9 9 9 10 11 10 9 9 9 8 9 8 8 9 8 8 8 9 9 9 9 9 9 9
8 7 6 6 6 4 1 3 4 3 5 3 2 1 2 3 2 3 5 4 4 4 3 2 1 1 2 2 3 2 3 5 5 3 3 2 3 11 19 19 13 13 20 22 26 29 30 30 29 28 26 25 24 24 23 21 20 19 18 17 16 15 14 14 14 14 13 12 11 10 9 9 9 9 9 9 10 11 9 8 8 8 8 8 8 8 8 8 7 7 7 8 8 8 7 6 5
9 7 8 6 4 4 1 4 4 2 5 2 3 3 1 2 2 5 7 7 7 4 1 1 1 1 4 3 1 3 3 3 4 2 1 3 4 10 20 19 14 14 18 20 25 28 30 30 29 28 26 26 25 25 24 22 21 20 19 17 16 15 15 15 15 14 13 12 11 10 10 10 9 10 9 9 10 10 9 8 8 8 8 8 8 8 8 7 6 5 5 6 7 6 6 4 2
9 8 10 6 3 4 4 4 2 4 3 2 1 4 2 3 5 6 7 7 6 1 2 1 1 1 3 2 2 2 3 3 3 4 1 7 6 10 20 17 14 15 17 19 23 27 29 30 29 27 26 26 24 25 25 23 22 20 19 18 17 16 16 16 15 14 14 13 12 11 10 10 10 10 10 9 10 10 10 9 9 9 9 9 9 8 7 6 4 3 2 3 5 6 5 4 3
7 7 7 5 3 2 3 3 2 4 2 4 2 4 5 6 6 6 6 5 4 1 2 2 1 2 1 2 2 1 4 2 3 5 4 9 8 11 19 15 15 17 18 19 21 26 29 30 29 27 26 25 23 24 25 24 22 21 20 18 18 18 17 17 16 15 14 13 13 12 11 10 10 11 11 11 11 11 11 10 10 10 9 9 9 8 7 4 3 2 2 4 6 6 5 4 3
6 5 5 5 3 1 3 2 1 2 4 5 3 6 7 6 6 4 3 4 2 1 2 2 0 1 1 3 2 2 3 1 1 6 6 9 9 14 18 14 16 18 19 19 20 24 27 30 29 28 27 25 22 23 24 23 22 21 20 19 20 19 18 18 17 15 14 14 13 12 11 11 11 12 12 12 12 12 11 11 10 10 9 9 9 7 5 4 3 2 1 4 7 8 5 4 3
8 4 3 5 2 2 4 2 2 3 4 5 5 6 6 7 5 3 4 2 2 2 0 1 1 2 1 3 1 2 1 2 2 4 7 10 10 15 17 15 16 18 19 19 20 22 25 29 29 28 28 26 23 23 24 22 21 20 19 19 20 20 18 18 17 16 15 15 14 13 13 12 12 12 13 13 12 12 11 12 11 11 10 9 8 6 4 4 4 2 1 2 6 8 5 4 4
7 3 1 4 2 3 4 1 3 3 3 3 4 6 7 8 5 3 2 0 1 2 1 3 0 2 3 3 1 4 1 4 4 5 9 10 12 16 17 16 17 18 19 19 19 20 24 28 30 29 28 27 25 24 24 22 21 19 19 20 20 20 19 18 17 16 16 16 15 14 14 13 13 13 14 13 12 12 12 12 11 11 10 9 9 7 5 4 4 2 1 1 3 6 5 4 4
4 3 2 3 2 3 3 2 3 3 4 5 3 4 4 5 3 4 1 1 1 1 3 4 1 1 4 4 3 5 2 3 6 7 9 10 12 15 17 16 16 18 19 19 18 18 22 27 30 29 29 28 26 25 25 23 22 20 20 20 19 20 19 18 18 17 17 17 15 14 14 14 14 14 15 14 13 12 12 12 12 12 10 10 10 9 7 5 4 1 3 4 4 5 4 4 3
4 4 2 3 3 3 4 3 2 2 5 5 4 5 4 2 2 4 2 1 1 1 4 2 1 2 3 3 4 3 2 4 7 8 9 10 11 15 18 16 16 17 18 19 18 18 20 25 29 30 29 29 28 26 25 25 23 21 21 21 20 20 19 18 18 18 18 18 16 15 15 15 15 15 16 14 14 13 13 12 12 12 10 10 10 10 9 7 5 3 6 7 4 4 3 4 5
3 4 3 4 4 2 1 3 4 4 6 6 4 6 5 2 3 3 2 1 1 1 3 1 1 3 1 3 4 2 3 6 7 8 9 11 12 16 18 17 17 17 17 18 18 18 19 23 28 30 29 29 29 28 26 26 25 23 23 22 21 20 20 19 18 18 19 18 17 17 16 15 16 16 16 15 14 14 13 12 11 10 9 9 10 10 10 10 7 7 11 9 4 3 3 5 6
3 4 4 4 2 2 3 3 6 5 7 5 3 5 2 2 3 1 1 0 2 3 3 1 1 2 1 4 4 3 3 9 9 7 9 11 12 15 18 19 18 18 18 17 18 19 19 21 26 29 30 29 30 29 27 26 26 25 24 23 22 21 20 20 19 19 19 19 18 18 17 16 17 17 17 16 16 14 14 13 12 10 9 9 9 8 8 8 7 9 12 10 4 4 5 6 6
3 1 4 2 3 3 2 3 5 4 5 2 3 5 2 3 0 4 3 1 1 3 4 5 3 2 0 4 4 5 4 10 10 8 10 11 11 13 19 20 18 19 19 18 18 19 20 21 24 28 30 29 29 29 27 27 27 26 25 24 24 23 21 20 20 20 20 20 19 19 18 17 17 18 18 17 17 16 14 13 12 10 9 8 8 7 7 6 7 10 12 9 5 4 6 7 6
2 3 4 1 1 0 2 2 4 2 3 4 3 4 3 1 3 5 4 1 4 2 2 5 5 2 2 3 4 5 5 11 11 10 10 10 11 12 18 20 17 18 20 20 20 20 21 21 23 25 28 30 30 29 28 27 28 27 27 26 25 25 23 22 21 21 21 20 20 19 18 18 17 19 19 17 17 16 14 13 12 10 9 8 8 9 8 7 9 12 11 8 5 5 7 7 7
3 2 4 2 2 3 2 2 1 3 1 5 3 3 4 3 2 2 2 1 5 4 0 0 3 1 2 1 4 5 4 9 12 11 11 11 11 13 18 18 17 18 20 22 21 21 21 22 23 24 27 29 30 31 30 29 28 29 29 28 27 26 25 23 22 22 21 21 21 20 19 18 18 20 20 18 17 16 15 14 12 10 8 8 10 10 9 9 12 12 11 9 6 5 7 7 7
3 3 5 2 1 2 2 2 2 3 2 5 4 3 4 6 0 1 3 3 3 3 1 2 2 2 3 4 7 6 4 8 12 12 12 12 12 14 17 18 17 18 20 22 22 22 22 23 24 25 27 28 30 31 31 30 29 30 30 29 28 27 26 24 23 23 22 22 21 21 20 19 19 21 21 19 18 17 16 14 12 10 8 8 10 10 10 11 13 12 12 10 7 7 8 7 7
3 4 4 1 1 2 3 3 2 1 5 6 6 4 1 7 3 1 2 3 2 5 2 5 4 2 5 5 6 7 3 9 13 13 13 13 14 13 15 18 18 18 20 23 24 24 23 24 25 26 28 29 30 31 32 32 31 31 31 30 30 29 27 26 24 23 23 23 22 21 20 20 20 22 22 20 19 18 16 14 13 11 9 9 9 10 11 12 12 11 12 11 8 8 8 7 7
4 3 3 1 3 3 5 5 3 2 4 5 6 2 1 5 5 3 3 3 4 6 6 5 5 6 10 10 8 7 5 11 13 14 13 13 13 13 15 18 20 21 21 23 24 25 25 26 26 27 29 30 31 31 32 32 32 32 32 31 30 30 28 27 26 25 24 24 23 22 22 21 22 22 22 22 21 19 16 15 14 12 11 10 11 12 12 13 12 11 10 11 10 9 9 8 8
3 3 2 3 5 5 5 6 4 2 4 5 6 3 2 4 4 2 2 6 6 7 9 7 7 9 11 13 8 5 9 13 15 16 15 15 16 16 17 18 21 23 24 25 26 26 27 28 28 29 29 30 31 32 33 33 33 33 33 32 31 30 29 28 27 26 25 25 24 24 23 23 23 23 23 22 21 19 18 16 15 14 13 12 12 13 14 13 14 13 11 12 11 10 10 9 9
2 3 1 6 6 5 5 5 5 5 5 5 6 3 2 6 3 1 2 6 7 6 9 8 11 11 8 9 6 6 11 13 15 16 16 17 19 20 20 20 23 25 26 26 27 28 28 29 30 30 30 30 32 33 33 33 33 33 34 33 32 31 30 29 27 27 26 26 25 24 24 24 24 24 23 23 22 20 19 18 16 15 14 14 13 14 15 14 15 14 14 13 12 11 10 10 10
1 4 4 6 4 3 7 7 5 4 3 3 6 4 6 7 2 1 2 6 9 7 8 8 13 14 8 7 6 7 10 12 14 15 16 18 20 22 23 24 25 26 25 24 26 28 29 30 31 31 30 30 32 33 34 34 34 33 34 34 34 33 32 30 29 28 27 26 26 25 24 24 25 25 24 24 23 22 20 19 18 17 16 15 15 15 16 16 16 16 16 14 12 11 11 10 11
1 3 6 6 3 3 8 6 3 4 4 5 6 5 6 5 2 1 2 5 9 7 8 10 11 13 10 8 6 7 8 10 12 14 17 19 22 24 26 27 27 25 24 25 27 28 29 30 31 31 31 31 32 33 34 34 33 33 34 35 35 34 33 32 30 29 28 27 26 25 25 25 26 26 25 25 24 23 22 21 20 19 18 17 17 17 17 18 19 18 17 15 13 12 12 11 11
2 4 4 5 5 5 6 4 4 4 4 6 4 4 3 5 7 3 6 10 11 9 9 9 10 13 13 9 6 6 8 8 11 16 20 22 24 26 28 29 30 29 27 28 27 26 27 28 31 32 32 32 32 32 33 33 33 33 33 34 35 35 34 33 32 31 30 29 27 26 26 26 27 26 26 25 24 24 23 22 21 20 19 19 19 18 19 20 20 20 19 16 14 13 12 12 12
5 4 5 5 5 6 6 4 6 5 5 8 4 4 5 5 7 2 7 13 13 12 9 8 13 15 12 8 7 8 8 7 10 15 18 19 24 27 28 27 28 27 28 29 27 26 25 26 29 31 32 32 32 32 33 33 33 32 32 33 35 35 34 34 34 32 31 30 28 27 27 27 27 27 26 25 25 24 23 23 22 21 21 20 20 20 20 21 22 22 21 18 16 15 14 13 13
5 5 4 4 3 6 7 5 8 8 7 6 3 7 9 8 5 3 12 17 15 11 6 6 10 11 8 6 7 7 7 8 10 11 10 11 13 18 19 19 21 21 25 27 27 26 24 24 26 29 31 32 32 32 32 33 32 32 32 33 34 35 34 34 34 33 32 31 30 28 28 28 28 28 27 26 26 25 24 23 22 22 22 21 21 21 22 22 23 24 23 20 17 16 15 14 14
4 5 3 3 5 6 6 7 9 8 5 2 4 11 11 6 3 5 13 16 14 8 5 6 6 8 8 6 8 8 8 10 14 14 16 20 20 17 14 12 12 15 20 22 23 25 24 23 24 26 29 30 31 32 32 32 32 31 32 33 34 34 34 34 33 33 32 32 31 30 30 29 29 29 28 27 26 25 25 24 23 23 22 22 22 22 22 23 24 25 25 22 19 18 17 16 15
4 3 4 4 6 7 4 7 11 7 6 4 5 12 11 4 1 4 10 12 8 6 7 7 4 8 7 9 9 9 10 12 14 16 20 24 25 23 21 18 13 8 12 17 19 22 22 22 23 24 26 28 30 31 31 32 32 32 32 32 33 33 33 33 32 32 32 31 31 30 30 30 30 29 28 28 27 26 26 25 25 24 24 24 23 23 22 23 25 26 26 24 21 19 18 17 16
1 1 6 7 7 8 5 8 10 4 5 5 8 7 8 2 2 7 12 11 5 6 9 8 6 6 7 9 7 8 10 13 17 20 19 20 20 21 22 22 19 13 7 9 12 14 16 19 21 22 24 26 28 29 30 31 31 31 31 31 31 32 32 32 31 31 30 30 30 30 30 30 30 30 29 28 28 27 27 26 26 26 25 24 23 23 22 23 24 25 25 24 22 20 19 18 18
1 3 5 8 7 8 10 8 4 1 3 4 8 3 7 1 6 11 13 9 7 8 10 7 7 6 8 8 7 8 10 15 19 20 17 17 19 20 22 23 22 18 13 6 3 5 8 12 16 19 21 24 26 27 28 29 29 29 29 30 30 30 30 30 30 30 29 28 29 29 30 30 30 30 29 29 28 28 28 27 27 27 26 25 24 23 22 23 24 25 25 24 23 21 21 21 20
3 2 1 6 6 7 9 2 1 2 3 6 7 2 6 7 10 12 11 7 7 9 8 7 7 7 7 6 7 8 11 14 16 18 19 19 20 22 23 25 24 22 18 13 8 5 4 6 10 15 18 21 23 24 26 26 27 27 27 27 27 28 28 29 29 28 28 27 27 27 28 29 29 30 29 29 29 29 28 28 28 27 26 24 24 23 23 23 24 25 25 25 24 22 22 22 22
2 2 1 3 2 5 8 2 0 4 2 6 6 2 6 9 11 12 10 4 3 7 6 8 7 7 6 6 8 7 9 13 15 18 21 22 22 23 25 26 26 24 21 19 16 12 7 3 4 9 13 17 19 21 22 23 24 23 23 23 23 24 25 27 27 27 26 26 25 25 26 26 27 28 29 29 29 29 29 28 28 27 26 25 24 23 22 23 24 25 25 25 24 23 22 22 24
2 1 3 3 2 5 10 7 4 3 3 4 6 2 5 8 11 12 10 3 2 5 6 8 7 8 7 6 7 6 7 12 17 21 22 23 23 24 26 27 27 26 25 23 20 18 15 11 5 1 5 10 14 15 17 18 19 19 19 18 19 20 21 22 23 24 24 24 24 24 24 25 26 27 28 28 28 28 28 28 28 27 26 25 24 23 22 23 23 24 25 25 25 24 23 23 24
3 1 4 3 3 3 6 8 2 4 1 2 3 2 4 7 8 11 11 7 6 6 6 8 7 7 7 6 6 6 6 10 15 20 23 23 23 24 25 26 27 27 27 26 24 23 21 19 15 11 7 1 4 7 10 11 12 13 14 14 14 15 16 18 19 20 21 22 22 23 23 23 25 26 27 28 27 28 28 28 28 26 26 25 24 23 23 23 23 24 24 24 24 24 23 24 25
3 1 3 4 4 3 3 6 5 3 3 2 2 2 5 9 9 12 12 8 8 6 5 7 7 6 6 5 6 7 7 8 11 16 22 23 23 24 25 27 27 28 28 27 26 25 23 22 20 18 15 12 7 3 1 4 5 6 8 8 9 9 11 14 15 16 17 18 19 19 20 21 23 24 25 26 26 27 27 27 27 27 26 25 24 24 23 23 24 24 25 25 25 25 25 25 25
5 4 3 4 3 4 5 5 5 6 5 4 5 5 7 10 10 11 9 6 7 5 6 7 6 6 5 6 7 7 8 9 10 16 20 22 24 25 26 28 29 29 29 29 28 26 25 23 21 20 19 16 13 11 8 5 4 3 3 3 4 4 6 8 9 11 12 13 14 14 15 17 20 22 23 24 25 26 26 26 27 26 26 25 24 24 24 24 24 25 26 26 26 26 26 25 25
7 6 3 4 4 5 6 6 6 3 4 5 6 7 7 8 11 10 8 5 6 4 8 7 5 6 6 7 7 7 8 8 10 16 20 23 24 26 26 28 29 30 31 30 30 28 27 26 24 23 21 18 15 13 11 10 9 8 7 6 5 4 3 3 4 4 5 7 7 8 9 11 13 16 19 21 22 23 24 24 25 25 26 25 25 25 25 26 26 27 27 27 27 26 26 25 24
3 3 2 4 5 6 5 6 7 1 1 6 5 4 6 9 9 9 8 6 9 6 8 7 6 6 6 7 7 7 7 7 11 17 21 23 25 27 28 29 31 31 32 32 32 31 29 28 27 26 24 21 19 17 15 12 11 11 10 10 9 8 7 4 4 2 1 1 2 2 3 4 7 9 13 16 18 20 21 22 23 24 25 25 26 26 27 27 27 28 28 27 27 27 26 25 24
2 3 4 5 5 6 7 6 6 2 1 5 3 3 8 10 6 7 7 8 9 6 7 7 7 7 6 7 7 6 5 5 10 15 19 24 25 26 28 30 32 32 32 32 32 31 29 28 28 27 24 23 23 21 19 17 15 12 11 10 9 9 9 7 6 6 5 4 4 4 5 5 4 5 8 11 13 16 17 19 20 22 23 24 26 26 27 27 28 28 28 27 26 26 26 25 25
3 2 2 4 4 4 7 5 4 2 1 5 4 4 8 8 4 6 7 8 6 6 7 6 6 7 6 6 6 5 5 6 8 11 16 21 22 24 27 30 31 32 32 32 32 31 30 30 29 27 24 23 22 20 19 19 17 15 13 12 10 10 11 9 8 7 7 7 7 7 8 7 7 7 7 8 10 12 13 15 17 19 21 23 24 26 27 27 28 28 28 28 26 25 25 24 25
3 4 3 5 4 1 4 5 4 3 1 3 3 4 7 3 5 6 6 6 6 7 8 7 7 7 7 6 6 6 6 7 8 9 13 17 21 25 28 28 30 32 33 33 32 31 31 30 29 28 26 25 23 20 18 16 15 14 14 13 12 11 11 8 7 7 7 8 8 8 9 9 9 9 9 10 11 12 13 13 14 15 17 19 22 24 25 26 27 28 28 29 27 24 24 24 25
4 6 6 6 5 5 5 3 4 4 4 2 3 5 5 1 3 3 4 5 6 6 7 8 7 6 6 6 6 7 7 6 8 8 10 15 20 24 26 27 29 31 32 31 31 31 30 30 29 28 27 26 24 22 19 16 15 14 14 14 13 13 13 12 11 11 10 10 10 10 10 10 9 9 9 9 10 12 13 15 15 15 15 16 18 20 22 24 26 27 28 29 29 26 26 25 25
4 5 9 9 7 6 4 2 4 4 4 3 4 4 5 4 1 4 3 3 5 4 5 7 6 6 6 6 7 6 7 6 7 8 10 14 18 21 25 27 29 30 29 29 30 30 30 30 28 27 27 27 25 24 21 19 20 20 20 20 20 20 21 20 19 16 13 11 10 10 11 11 11 10 9 9 9 10 11 13 14 15 16 16 16 16 18 21 23 25 26 28 29 29 28 25 24
3 5 7 7 5 4 3 2 3 1 3 3 3 1 5 6 4 5 5 4 4 4 5 6 5 6 5 5 6 5 6 6 6 8 10 13 16 19 23 25 27 28 27 28 30 31 32 31 30 29 28 28 26 24 22 22 23 24 24 25 25 24 23 22 21 19 16 12 10 9 10 10 12 12 12 12 11 11 10 11 12 13 14 15 16 16 15 17 20 22 24 25 27 28 28 25 25
3 4 5 7 6 5 5 4 2 3 2 4 3 2 3 5 5 5 7 6 4 4 4 5 4 5 5 5 5 6 6 6 6 7 8 12 16 19 20 22 25 26 27 29 31 32 32 31 31 30 30 29 27 25 24 24 24 24 24 24 24 24 23 22 21 20 18 16 14 12 11 9 9 9 10 11 11 11 11 11 11 11 12 13 15 15 16 16 17 19 21 22 24 26 27 27 27
6 5 6 6 6 6 5 5 2 1 1 5 4 1 2 5 5 2 4 5 3 4 4 3 4 4 5 5 5 5 5 5 5 6 7 11 15 19 19 20 24 26 28 29 29 30 31 31 32 32 32 30 28 26 26 25 25 24 24 24 24 23 21 20 19 19 19 18 18 18 16 14 11 10 9 10 10 10 11 11 11 12 12 13 14 14 15 15 16 17 18 20 21 23 25 27 28
4 5 5 4 4 4 4 5 3 2 1 5 6 3 2 5 6 2 2 4 4 5 4 3 4 3 4 4 4 5 5 5 5 6 9 11 15 18 18 20 24 26 27 27 28 29 30 31 32 33 33 31 30 29 28 27 26 26 26 25 25 24 22 21 20 20 21 20 20 20 19 18 16 14 13 12 11 11 11 11 11 12 13 14 14 15 15 15 15 16 16 17 19 21 23 25 27
4 5 5 5 5 4 4 2 4 3 3 6 8 9 5 3 5 3 2 3 4 8 5 4 4 4 4 4 4 4 4 4 4 6 9 12 15 17 18 21 24 25 26 27 28 29 30 31 32 33 32 31 31 31 30 30 29 29 29 28 28 27 26 25 25 26 25 23 23 23 21 20 19 17 16 14 14 13 12 11 11 11 11 12 14 15 16 16 16 17 17 17 17 18 20 22 24
6 5 4 3 4 4 4 4 4 1 5 6 5 6 5 4 5 2 2 5 2 7 10 9 8 5 4 4 3 2 3 3 3 4 6 10 13 15 18 21 23 26 27 28 28 28 29 30 30 32 32 31 31 31 31 31 31 31 31 30 31 30 29 29 30 29 29 28 28 27 25 24 23 23 21 20 19 16 14 12 12 11 11 12 14 14 15 16 17 17 18 18 18 18 18 19 21
5 4 5 4 2 3 3 3 0 3 6 4 2 4 2 5 4 3 4 7 6 2 9 11 10 8 6 4 3 2 2 3 3 4 4 7 10 13 16 19 23 26 26 26 27 27 28 29 29 31 31 29 29 30 30 30 31 31 30 30 30 29 29 30 30 30 30 30 30 29 29 29 28 28 27 27 25 22 19 16 14 12 12 13 14 15 15 16 17 17 18 19 19 19 19 20 20
4 5 4 4 2 1 3 4 1 3 5 2 2 3 2 4 2 4 4 5 5 3 8 8 8 8 7 5 4 3 2 2 2 3 4 6 9 12 15 18 22 24 24 25 26 26 27 28 28 29 29 28 28 28 29 29 29 29 28 28 28 28 28 29 29 29 29 29 29 28 28 28 28 28 28 28 27 25 24 21 19 16 14 14 14 15 16 17 17 17 18 19 19 20 20 21 21
4 4 5 5 4 4 4 4 3 4 4 3 1 1 2 3 1 3 3 4 4 6 7 6 6 6 5 5 4 3 2 1 2 3 4 7 10 12 15 18 20 21 23 24 24 24 25 26 26 26 26 26 27 27 27 28 27 27 26 26 26 26 27 27 27 27 27 27 27 26 26 26 27 27 26 27 26 26 25 24 23 21 20 18 17 17 17 17 17 17 18 18 19 20 21 21 22
2 3 5 3 4 5 2 3 5 3 3 3 2 2 3 3 1 2 2 4 5 6 6 6 6 4 4 4 4 4 3 2 3 3 5 7 10 12 15 17 18 20 21 22 22 22 23 23 23 23 23 23 24 24 25 25 24 24 25 25 25 25 26 26 26 26 26 26 25 25 25 25 26 26 26 26 26 26 26 25 25 24 23 22 21 20 20 19 19 18 18 18 19 19 20 22 22
2 3 3 4 4 6 3 2 0 3 1 4 2 2 2 0 1 1 3 4 4 4 4 5 5 4 4 4 4 4 3 3 3 3 4 6 9 12 14 15 16 17 18 19 19 19 20 20 20 20 20 20 20 20 20 21 21 21 23 24 24 25 25 25 25 25 25 25 25 25 25 25 26 26 27 27 27 27 27 26 26 25 24 24 23 22 22 22 21 21 20 20 20 19 20 21 21
5 3 5 3 1 4 4 1 2 3 2 4 1 3 3 1 2 1 2 3 3 3 4 4 4 4 5 5 4 4 3 3 3 3 5 6 9 11 13 14 14 15 15 16 16 16 17 18 18 19 19 19 19 18 18 19 19 20 20 21 22 23 23 23 23 23 24 24 25 26 26 26 27 27 28 29 29 29 29 28 28 28 26 25 24 23 23 23 23 23 22 22 21 21 21 21 22
5 4 3 3 2 1 1 2 2 1 3 4 4 4 3 4 4 3 6 8 7 6 5 5 6 6 6 5 5 5 4 3 3 3 4 6 8 10 12 12 12 13 13 14 14 14 15 16 16 16 17 17 17 17 17 18 18 19 19 19 20 20 21 21 22 22 23 24 25 26 27 27 28 28 29 30 30 31 31 31 30 30 29 28 27 25 25 24 24 24 24 24 24 23 23 23 23
2 0 1 1 2 4 2 2 3 3 3 4 5 5 4 5 5 7 10 10 10 8 7 7 8 7 7 6 6 6 5 4 4 4 4 6 8 9 10 11 10 11 11 11 12 12 12 12 13 13 14 14 14 15 15 15 15 16 16 16 16 17 18 20 21 21 23 24 24 26 27 28 28 28 29 30 31 31 31 32 32 32 32 31 30 29 28 26 25 25 25 25 26 26 26 26 25
2 1 2 1 1 1 1 1 2 3 3 3 4 5 5 4 3 6 8 8 11 12 10 9 8 8 8 7 6 6 5 5 4 4 4 7 9 9 9 9 8 8 7 7 8 8 8 8 8 9 9 10 11 11 11 12 12 12 12 13 13 13 15 17 18 19 20 22 23 25 27 28 28 28 28 29 30 30 31 32 32 32 32 32 32 32 31 30 28 27 26 26 26 27 27 28 28
5 4 4 4 2 2 2 4 1 2 3 4 3 5 6 4 2 3 4 8 11 12 11 9 9 10 9 7 6 6 5 6 5 5 6 9 10 9 7 6 6 6 5 5 5 5 5 5 5 5 5 6 6 7 7 8 8 9 9 11 12 12 12 14 16 17 19 21 23 25 26 28 29 29 28 29 30 30 31 31 31 32 32 33 33 33 33 32 31 31 30 29 29 28 28 28 28
Wind_Direction
332 339 340 330 333 343 12 62 52 329 71 67 310 57 246 258 234 113 278 282 334 260 227 195 146 133 105 181 195 196 181 174 172 128 209 246 190 179 182 187 180 171 182 183 187 189 187 185 182 182 182 181 180 178 178 179 179 180 180 181 179 177 179 175 164 158 154 151 153 153 150 148 146 146 144 145 149 153 155 149 143 140 140 140 139 136 132 130 129 122 117 119 117 115 110 104 100
347 349 359 339 342 5 312 70 84 337 46 59 301 175 250 330 38 162 201 206 209 237 215 186 171 112 70 136 170 139 230 223 186 171 243 241 154 179 181 193 199 178 181 182 186 189 188 187 184 184 184 183 182 180 180 181 182 183 185 186 184 182 180 172 164 162 160 159 159 160 158 155 152 151 150 150 152 156 159 154 146 144 147 147 145 141 135 134 132 129 129 131 132 132 129 121 111
360 353 4 357 360 41 40 43 85 43 66 84 291 258 302 30 186 208 215 214 221 221 109 95 4 156 72 30 153 127 263 265 189 202 289 181 173 185 183 193 202 189 182 182 187 191 190 188 187 187 186 185 183 182 182 183 186 187 187 189 187 185 180 170 167 167 166 168 166 165 162 158 158 156 157 160 160 157 159 159 152 152 156 151 150 147 139 131 125 134 141 141 147 155 160 159 153
3 355 358 16 32 30 54 45 114 108 107 162 290 279 275 188 207 234 238 241 247 199 79 81 21 210 115 350 247 151 259 285 212 184 181 190 184 181 184 192 197 190 186 186 188 192 193 190 189 189 189 187 185 184 184 186 189 192 190 191 190 185 179 172 172 172 172 173 170 169 164 163 162 161 165 167 167 161 161 164 161 164 160 154 152 144 138 132 127 142 172 178 174 174 181 193 212
356 358 357 34 70 31 78 75 98 95 168 184 149 274 251 208 208 235 265 284 275 170 130 110 356 278 153 223 192 166 232 277 248 204 195 188 178 177 185 195 191 188 189 190 191 194 196 193 191 192 191 189 188 188 187 189 190 193 193 195 192 183 177 175 176 177 178 177 173 173 171 172 169 170 171 169 170 165 166 170 170 171 163 155 148 140 135 137 142 150 234 236 206 192 192 203 230
359 15 19 44 86 116 84 63 7 299 230 171 162 254 240 224 210 202 307 316 301 237 166 118 230 317 325 256 181 190 222 96 224 210 195 178 170 177 190 199 190 190 192 193 195 197 198 195 193 193 193 190 190 192 192 192 193 194 194 193 187 179 178 179 180 181 183 180 178 178 178 180 182 179 173 172 172 167 167 171 175 170 161 154 146 145 141 136 142 137 226 246 218 204 198 210 243
3 10 21 49 42 53 84 109 222 260 247 176 177 229 226 233 215 130 14 336 350 343 270 219 164 79 293 291 287 251 250 197 196 192 183 172 167 174 190 199 191 192 193 195 198 200 200 197 195 195 195 192 191 195 196 195 197 198 194 190 182 179 181 183 184 185 186 183 182 183 185 188 192 184 173 178 176 169 170 171 174 166 158 157 153 161 158 141 138 125 136 243 226 212 207 223 247
5 9 27 79 30 23 82 112 234 221 252 231 204 215 218 219 196 102 26 239 347 310 326 278 121 81 283 360 306 264 314 218 203 173 173 170 167 172 189 196 194 195 194 197 197 201 202 199 197 197 196 195 193 195 197 197 199 200 195 190 185 184 184 185 187 187 187 186 186 188 190 192 197 187 176 182 180 174 175 172 172 168 164 165 165 173 171 150 136 116 158 234 243 220 219 228 235
24 38 49 76 55 23 40 323 287 237 262 288 277 253 243 216 157 91 78 336 2 243 274 253 136 41 293 354 284 274 339 194 170 161 166 170 172 173 188 195 197 197 195 197 197 200 202 201 200 199 199 197 196 197 198 198 201 202 198 194 190 189 188 189 189 188 188 188 189 191 195 196 199 189 180 184 183 179 178 178 180 180 181 182 183 183 178 164 157 189 245 260 258 228 225 214 196
35 35 79 71 69 30 355 307 303 287 271 288 283 271 275 241 96 72 92 345 17 308 285 236 100 311 289 307 272 296 319 183 159 163 166 168 173 178 188 196 201 201 198 198 198 198 200 203 203 202 202 199 199 200 200 200 202 203 200 198 195 194 194 192 190 190 189 190 191 193 198 200 203 193 185 186 185 185 184 185 189 193 197 201 207 208 207 200 197 228 247 263 260 225 212 178 167
37 355 81 78 58 46 316 274 289 288 285 302 290 265 256 214 98 61 46 2 14 19 290 66 47 263 321 292 264 298 259 203 181 178 171 168 175 183 190 194 201 206 205 203 201 199 199 203 205 205 204 202 202 204 204 201 202 203 201 199 198 200 200 197 192 192 192 193 193 195 199 202 206 196 188 188 187 192 192 190 194 201 208 216 225 229 231 225 214 218 234 250 247 206 170 156 157
69 338 62 87 101 192 216 251 279 281 297 315 287 277 264 109 86 60 8 355 349 355 272 201 151 188 27 299 267 307 250 202 195 191 187 180 179 185 191 194 200 207 211 209 206 203 200 201 205 208 208 206 205 207 208 204 204 204 201 200 200 202 205 203 196 195 197 198 197 198 201 205 207 196 191 191 192 198 195 196 202 209 217 227 234 234 237 227 205 210 232 245 227 180 155 154 156
99 130 79 86 179 185 217 243 278 313 326 300 235 286 14 51 326 198 174 194 319 355 275 217 157 101 238 269 282 323 259 206 200 205 205 189 182 188 192 193 197 205 211 214 212 209 204 202 204 208 210 209 208 210 211 207 205 206 203 202 203 204 206 206 202 199 201 202 202 203 203 208 208 197 194 196 198 202 201 205 211 219 229 230 232 226 223 217 205 215 233 239 214 173 160 159 158
120 145 102 71 270 339 217 258 315 31 329 278 252 296 356 347 233 189 155 330 282 217 242 203 145 88 263 292 317 310 251 214 205 211 208 189 188 191 191 195 199 203 210 215 217 215 209 206 205 207 209 210 211 211 213 212 208 208 206 204 206 206 206 207 206 202 203 205 206 207 207 209 209 200 200 202 202 206 209 216 221 231 238 219 215 211 201 204 212 222 234 230 210 176 166 164 163
127 118 91 97 350 346 234 249 341 107 241 271 271 320 348 298 210 204 190 197 271 229 220 201 133 198 232 228 263 269 257 213 203 204 198 189 193 191 192 197 204 205 210 216 219 220 215 211 208 207 208 210 213 213 214 215 211 209 208 208 208 209 209 208 209 206 205 208 209 210 211 211 209 204 205 206 205 210 214 221 228 235 236 215 214 206 187 202 218 226 233 224 206 183 172 169 170
111 104 70 59 318 331 245 227 83 82 290 262 284 356 351 303 301 290 248 146 287 290 37 236 200 230 199 197 246 284 307 207 194 197 195 192 194 194 196 199 206 209 212 215 219 222 219 215 213 210 210 210 212 214 216 216 214 211 211 211 210 212 212 211 212 211 208 210 212 212 212 213 211 208 208 209 210 214 218 225 230 232 234 229 221 202 184 206 226 231 230 220 202 185 177 175 177
65 78 71 21 234 229 223 208 127 71 284 279 310 2 28 300 316 294 293 87 300 295 310 247 246 246 202 218 282 318 291 201 192 193 191 190 195 199 202 202 206 209 211 214 218 221 220 218 217 215 213 212 213 214 216 217 216 214 214 214 213 214 215 214 215 214 213 212 214 214 213 214 213 211 210 212 213 216 223 228 230 232 239 239 222 202 192 205 227 235 225 215 197 181 178 180 184
54 79 108 219 201 208 193 189 186 157 276 284 308 334 143 289 305 314 331 4 323 305 297 269 271 271 248 258 292 305 235 197 195 190 186 188 195 202 207 207 208 211 211 213 216 218 220 220 219 218 217 216 215 215 216 218 217 215 216 217 215 215 216 216 217 217 215 214 215 215 213 214 214 213 213 213 215 218 225 228 229 235 240 240 226 214 208 209 224 233 223 209 190 177 180 183 189
93 117 137 225 203 216 198 193 203 179 254 269 288 286 205 260 276 337 305 297 323 320 294 287 285 277 270 277 284 261 209 196 197 192 190 192 197 204 209 210 211 215 214 215 218 218 220 222 222 221 220 219 217 217 217 218 218 217 217 218 218 217 217 217 218 218 217 216 216 215 214 214 215 216 215 215 217 221 228 229 231 238 241 241 233 225 220 218 224 230 229 211 186 178 186 188 193
164 122 163 241 218 235 248 234 232 219 233 267 284 278 267 269 253 298 312 298 304 285 276 287 290 282 267 270 267 214 201 198 200 198 200 203 209 213 214 215 216 221 221 220 222 221 221 223 224 224 223 221 219 218 219 219 218 217 217 217 218 218 219 219 219 220 220 219 217 217 215 214 215 216 217 217 219 224 229 230 232 239 241 239 237 231 225 225 226 230 235 217 189 185 190 192 198
181 137 188 235 205 235 267 257 252 243 238 283 293 321 304 283 240 239 357 320 295 268 250 245 268 282 277 262 251 210 201 204 206 207 213 217 221 224 226 228 230 233 231 227 227 226 226 226 226 226 225 223 221 220 219 220 219 218 217 217 217 218 219 220 220 221 222 222 220 219 218 216 216 216 216 218 221 225 227 228 230 235 236 235 235 233 227 227 229 230 233 216 192 191 193 198 204
171 214 210 227 179 218 268 263 291 317 336 323 313 310 290 298 325 239 193 265 272 267 251 234 245 269 278 275 253 214 206 215 214 216 222 227 232 233 236 238 239 239 235 231 231 232 230 230 229 227 226 225 224 223 222 222 220 218 218 217 217 217 219 220 220 221 223 224 223 221 219 218 217 216 217 219 223 225 226 227 230 232 234 235 234 233 230 229 231 233 233 218 198 197 197 203 208
218 272 246 244 219 229 274 294 315 331 331 304 296 284 299 329 306 248 210 241 252 260 256 251 255 262 274 284 266 235 227 221 217 223 227 231 237 239 242 243 242 240 235 235 237 237 234 233 232 228 227 227 227 226 225 224 222 220 220 219 217 217 218 219 220 221 222 223 223 222 219 218 218 218 219 221 224 225 227 229 231 234 235 236 235 235 233 232 233 235 237 226 207 203 202 207 211
201 261 281 267 235 227 256 283 287 281 260 264 274 321 315 286 290 311 264 263 261 265 260 258 268 273 282 285 270 264 264 258 251 250 249 250 253 255 256 255 253 246 238 241 242 239 238 237 233 230 229 230 229 227 225 226 226 223 221 221 219 218 218 219 220 221 222 223 223 222 219 220 221 221 223 225 227 228 230 232 233 235 236 238 237 237 236 234 234 235 238 230 214 209 207 210 213
193 226 270 281 261 244 261 271 270 270 261 262 298 302 277 252 270 309 274 274 274 275 276 262 274 290 294 295 302 313 324 329 326 325 332 328 305 288 284 281 275 260 245 247 247 242 243 240 234 232 232 231 230 228 226 227 228 226 222 223 222 220 220 221 222 222 223 224 223 222 220 221 223 225 227 228 230 231 233 234 235 237 238 239 238 238 238 236 235 234 236 232 219 214 213 214 216
210 202 235 271 282 276 283 282 272 276 267 251 298 286 279 266 262 268 261 261 271 297 314 279 290 304 310 354 10 21 27 14 4 9 18 22 23 11 355 337 304 276 259 262 260 251 248 242 236 235 234 232 230 228 228 228 228 228 225 224 224 223 222 223 224 223 225 226 225 223 223 225 226 228 230 230 232 233 235 235 236 238 238 239 240 240 240 239 237 234 234 233 223 218 219 221 223
218 217 270 268 287 290 273 274 279 294 282 232 230 268 281 295 237 264 265 253 270 333 307 292 325 311 336 36 43 45 45 30 18 23 24 21 23 18 14 15 3 328 278 275 272 263 255 246 242 239 236 233 230 229 230 230 229 230 228 227 226 226 226 226 226 227 229 229 228 227 227 228 230 232 233 234 235 235 237 237 237 238 238 239 241 242 243 242 239 236 236 235 229 224 223 225 228
206 322 316 301 317 310 273 265 277 304 289 211 173 254 295 350 201 241 258 261 307 334 297 314 357 341 24 61 56 48 45 32 30 35 28 16 14 10 12 15 14 20 353 293 276 274 269 257 249 244 239 233 231 232 232 231 231 231 231 229 229 230 230 229 229 230 232 232 232 231 232 233 234 234 234 236 237 238 239 239 239 239 239 240 241 244 245 245 241 237 236 237 236 233 230 228 229
303 44 334 304 345 323 281 270 267 202 262 179 138 295 313 273 224 242 255 274 329 319 303 343 18 24 52 68 58 49 38 33 35 35 27 18 17 14 17 19 20 28 33 21 293 289 293 274 258 248 241 235 233 234 234 233 233 232 232 231 231 231 231 231 232 233 234 235 235 235 237 238 238 237 236 237 239 240 241 242 242 241 241 241 242 244 245 244 240 234 233 236 238 236 231 228 227
309 14 352 301 354 317 280 274 3 317 241 162 135 288 291 258 248 255 267 293 327 310 319 15 37 53 64 63 58 51 37 34 34 30 23 22 22 21 23 25 29 33 38 45 48 41 353 292 266 252 241 238 237 236 235 235 235 233 233 232 232 231 231 233 234 235 236 237 238 239 240 241 241 240 239 239 240 241 242 243 244 243 242 242 243 245 245 243 239 234 232 234 237 236 232 227 226
318 332 351 322 332 279 288 289 310 320 283 148 138 215 262 272 276 275 278 296 314 302 347 35 51 66 66 58 57 51 41 36 32 28 24 24 24 26 28 30 35 39 44 50 52 52 44 17 279 255 244 240 238 236 236 236 236 235 234 234 233 233 233 234 235 236 237 238 239 241 242 242 242 242 240 239 239 241 242 243 244 245 244 243 244 246 246 243 240 237 234 235 237 235 233 229 228
14 322 306 327 206 261 304 293 193 220 287 109 125 219 267 273 279 283 289 323 346 319 13 49 59 62 58 53 54 49 40 35 31 28 24 26 27 29 32 35 39 43 48 54 59 62 63 64 65 239 239 237 236 237 238 237 237 236 236 236 237 238 237 236 236 236 236 237 238 240 242 242 241 241 240 239 240 241 243 244 245 245 244 244 245 246 246 243 240 239 238 238 238 235 233 231 231
348 194 249 265 219 256 315 302 239 180 264 60 132 233 281 277 280 287 298 332 352 346 31 64 65 59 58 53 50 48 37 30 27 22 20 24 29 32 36 39 44 48 52 56 59 63 65 68 71 75 77 123 229 238 239 240 242 240 239 239 240 242 242 241 239 237 236 236 236 237 239 239 239 239 238 238 239 240 242 245 246 245 245 246 246 245 245 245 241 239 239 240 240 239 237 234 234
311 276 230 246 231 233 289 298 315 31 58 350 277 241 256 276 289 291 300 330 343 346 50 82 80 67 63 59 54 48 39 34 24 15 17 23 30 35 39 43 48 52 55 57 59 61 64 66 69 71 71 73 75 87 201 231 235 235 236 236 238 239 240 240 239 239 237 235 235 235 234 235 236 236 237 238 238 240 241 242 244 244 244 245 246 246 245 244 241 240 240 239 239 240 241 241 240
251 256 243 269 263 245 258 271 297 349 6 317 302 285 266 282 288 288 305 338 333 352 88 100 89 79 68 60 55 48 43 41 25 16 19 26 32 37 41 45 49 51 54 57 60 62 63 63 66 68 69 74 79 82 88 101 124 151 174 187 205 211 220 226 231 236 236 236 237 236 234 233 233 234 235 237 237 238 238 239 242 242 243 244 245 244 242 240 239 238 238 238 236 237 241 245 244
226 241 228 257 274 262 258 259 268 328 348 297 284 277 275 286 286 297 325 354 348 21 98 99 83 82 68 61 56 47 48 40 24 23 27 32 35 39 42 46 50 52 53 55 58 59 59 59 61 62 62 67 75 79 83 90 93 95 102 108 109 110 133 176 194 217 228 235 240 242 242 239 238 238 238 238 238 238 239 239 240 242 242 242 242 242 241 241 241 240 238 236 234 234 237 240 242
224 257 265 257 260 270 265 264 277 352 2 275 265 275 287 283 289 320 340 16 21 33 92 87 74 74 61 64 58 48 50 36 28 31 33 35 39 42 44 47 50 52 51 52 54 54 55 57 58 58 58 61 64 64 68 74 77 76 78 83 85 84 83 88 95 90 75 308 296 294 286 271 258 251 247 245 244 245 244 243 242 242 243 243 243 245 245 245 244 242 239 235 233 233 234 236 236
224 245 270 275 256 262 258 250 280 337 162 267 299 341 295 286 311 355 9 41 31 23 80 83 78 76 63 64 58 49 48 30 32 33 34 36 39 43 45 47 49 48 47 49 50 51 55 57 56 57 58 61 61 61 64 65 66 69 73 76 77 78 73 66 64 54 40 26 15 7 0 351 327 296 275 264 259 257 254 251 248 246 246 246 246 246 244 242 240 239 235 233 232 233 236 237 232
195 202 224 264 256 278 281 272 304 345 193 270 317 337 281 284 15 36 36 59 46 31 64 71 76 78 63 58 54 48 43 31 32 32 32 35 38 42 46 46 48 48 48 49 51 52 53 54 55 56 58 59 60 61 63 64 67 70 74 77 78 77 71 65 63 52 36 23 16 12 10 7 1 348 327 309 296 287 279 270 263 256 253 251 250 247 244 241 239 238 236 235 233 232 235 237 232
205 202 198 249 244 204 276 289 319 327 314 279 315 315 276 275 72 62 51 73 72 56 63 61 64 74 68 62 53 46 45 35 33 32 29 33 36 40 42 44 47 49 49 48 49 51 51 52 54 55 57 58 59 61 64 69 72 74 77 80 81 79 72 68 67 55 43 34 28 23 20 16 11 3 354 344 333 325 316 305 293 280 269 261 257 253 249 247 244 242 240 239 235 230 232 235 234
243 218 213 238 241 214 225 280 323 332 351 356 9 338 298 259 120 102 80 81 73 62 69 63 52 62 67 64 54 44 43 36 34 34 27 30 35 38 41 45 48 48 47 47 49 52 53 55 56 57 57 57 59 61 65 70 75 77 79 77 73 69 61 54 48 43 45 45 41 37 30 25 21 14 4 356 349 342 336 330 324 314 302 288 275 266 259 256 252 248 246 242 238 234 235 237 236
283 237 217 220 229 228 223 359 13 14 340 326 34 7 298 312 357 165 146 84 68 53 59 63 50 48 53 52 46 35 35 35 34 36 32 33 36 40 42 44 47 47 47 49 52 55 58 58 60 60 59 58 58 61 64 69 71 71 72 68 62 58 52 46 40 36 35 36 39 41 36 31 30 28 23 14 3 354 346 339 335 330 326 319 307 292 277 268 261 257 253 248 245 243 241 239 237
279 248 207 193 184 179 164 85 59 90 254 282 49 103 262 314 322 201 169 109 90 69 54 62 53 47 49 48 44 34 31 29 28 34 34 36 40 42 42 44 48 49 49 53 56 58 60 60 61 62 61 59 59 61 65 68 70 69 70 68 64 61 55 49 47 46 42 37 41 43 38 35 34 33 31 28 22 12 3 352 343 336 333 331 327 318 305 290 278 271 265 258 254 251 245 239 241
236 237 139 134 141 157 158 116 136 217 256 314 358 149 243 293 280 214 159 128 106 88 69 64 56 50 52 48 45 41 35 27 28 35 33 36 43 46 45 47 53 56 56 58 59 59 61 62 63 64 63 62 61 62 65 66 69 69 69 69 66 63 60 56 55 55 51 47 47 43 37 35 30 27 25 23 21 17 14 8 359 351 343 338 334 329 324 315 302 290 281 272 264 258 251 245 246
237 204 127 123 140 155 147 120 149 250 6 309 294 153 247 262 271 268 146 167 170 140 137 104 79 61 55 52 46 41 35 30 30 37 35 34 45 51 51 52 57 61 61 61 62 63 64 64 66 66 64 63 63 64 66 66 67 69 68 67 63 60 61 61 60 57 53 49 46 43 41 40 37 32 26 17 9 5 4 4 4 1 357 350 343 337 330 325 318 308 298 290 280 271 263 256 251
217 152 105 61 74 93 94 112 118 40 8 251 234 184 207 262 278 293 158 219 213 164 156 132 104 76 64 56 49 43 34 28 28 39 41 41 51 57 58 58 59 62 64 64 65 65 65 65 66 66 64 63 64 65 66 66 65 65 65 63 61 58 56 57 58 55 50 46 42 38 37 39 39 38 35 29 21 13 5 357 356 357 357 356 351 347 341 334 328 321 313 304 295 286 278 268 261
129 97 60 25 24 43 45 75 88 59 279 251 221 193 186 265 280 230 181 264 201 156 151 150 128 100 88 69 52 50 38 29 28 38 43 48 57 60 61 61 60 62 64 65 65 65 65 65 66 66 64 63 64 65 66 66 64 64 63 63 62 59 56 55 54 52 49 47 43 37 34 33 33 32 30 28 25 22 17 8 360 353 350 350 349 348 345 341 336 330 324 316 307 298 291 283 275
101 84 68 36 340 9 21 359 47 114 253 267 231 181 165 222 265 284 317 326 288 164 164 163 149 134 121 99 78 60 44 40 42 48 46 48 53 54 56 58 58 60 62 62 63 64 66 66 67 67 64 63 64 64 65 65 65 65 64 64 63 62 60 58 56 54 52 51 47 42 39 36 35 33 29 27 25 21 18 14 7 0 353 348 345 343 342 340 336 332 328 323 317 310 303 296 288
82 98 89 75 324 349 357 306 335 213 253 272 174 132 157 233 247 319 333 338 328 183 152 152 148 142 138 131 131 105 60 45 51 59 51 50 51 50 52 56 58 59 60 61 62 64 65 65 67 67 64 64 65 65 65 65 64 64 63 63 63 62 61 60 59 56 54 52 49 45 42 38 36 35 33 31 29 27 25 21 15 8 359 350 343 340 338 337 334 331 328 325 321 318 313 307 299
135 144 129 122 149 195 265 265 273 261 269 279 153 132 286 266 285 337 333 337 334 63 112 127 133 134 141 147 149 129 92 58 55 66 61 61 62 60 61 63 63 63 62 63 63 64 65 65 66 67 65 65 66 66 66 65 64 64 64 63 63 62 61 60 59 57 54 51 48 45 42 38 36 34 32 31 30 29 29 28 23 17 8 356 346 338 334 332 331 329 327 325 322 320 317 314 308
173 157 138 146 160 167 214 226 209 248 280 297 257 190 212 224 286 328 342 3 20 66 91 101 107 122 136 136 139 137 122 95 69 74 70 69 70 72 72 70 68 67 65 65 65 65 66 65 64 65 64 64 65 65 65 65 64 63 63 62 61 60 59 57 56 53 50 48 44 42 38 34 31 29 28 27 26 25 26 25 25 22 18 12 4 354 345 337 332 327 325 324 322 321 320 315 312
195 130 115 166 189 162 179 208 179 185 294 296 236 219 206 176 206 335 32 46 54 67 83 100 111 128 135 138 150 156 146 103 81 79 73 74 77 77 76 74 72 69 67 66 65 65 66 65 65 65 63 63 63 63 63 62 61 59 56 55 53 51 50 49 49 46 44 42 39 36 32 28 26 23 21 20 19 19 18 17 17 17 16 15 12 8 0 353 345 336 330 326 321 321 321 317 314
159 128 176 215 181 132 122 265 148 96 257 270 214 230 288 31 216 306 63 70 76 81 97 123 145 155 153 166 176 177 166 113 92 97 92 86 84 81 78 75 74 72 71 69 66 66 67 66 66 66 64 63 61 60 60 58 56 53 51 48 45 43 42 41 40 38 36 34 31 28 25 21 18 15 14 12 11 12 11 10 9 8 7 6 6 5 2 358 354 347 342 336 330 325 320 315 314
130 173 214 203 118 85 97 223 339 40 243 274 262 217 241 233 240 274 108 154 160 155 160 165 179 185 183 189 192 194 173 134 122 122 109 96 88 85 81 77 76 77 74 73 72 70 70 65 63 62 60 59 57 56 55 52 50 47 45 43 41 39 38 36 34 32 28 25 22 19 15 12 10 7 5 5 4 4 4 4 2 0 359 358 357 356 355 353 351 348 346 342 340 335 327 319 314
130 193 206 117 132 258 85 162 218 226 238 275 290 267 236 207 203 193 202 200 183 180 188 189 198 200 199 200 205 206 180 152 146 135 118 103 96 90 85 82 83 82 77 76 76 73 70 65 61 59 57 55 53 50 49 47 45 43 39 37 35 33 31 28 25 22 19 16 13 9 6 3 1 360 358 357 358 358 358 357 356 354 353 352 351 350 348 346 344 342 340 339 339 337 333 328 323
64 105 305 62 161 180 166 170 171 186 225 258 289 299 274 232 198 186 201 190 168 175 190 196 203 202 202 199 198 198 181 172 163 151 151 122 108 100 93 92 93 91 86 84 82 79 74 68 62 60 56 53 49 46 46 44 42 40 36 34 30 25 22 18 15 12 9 7 3 359 357 354 353 353 351 351 351 352 352 351 350 348 347 346 346 345 344 342 339 336 334 333 332 332 330 327 325
117 169 231 251 218 169 229 226 134 146 189 222 267 279 266 254 194 184 199 175 165 179 183 190 202 204 207 205 196 192 179 175 174 160 157 137 125 120 111 109 112 110 105 102 97 92 85 76 69 63 56 53 49 46 45 43 41 37 32 29 22 15 14 9 6 4 360 357 354 350 348 346 346 347 346 345 345 346 346 345 343 342 341 340 339 339 339 337 335 332 330 328 326 326 324 323 321
151 178 200 191 169 144 245 265 235 140 183 188 217 262 271 265 216 198 193 170 175 185 177 181 201 204 206 209 197 188 178 173 174 165 159 154 148 143 139 140 144 142 140 137 130 119 107 94 82 69 59 55 47 41 41 37 34 29 22 18 11 4 2 358 355 353 350 348 345 343 342 340 340 341 341 340 339 339 339 338 337 335 335 334 332 332 332 331 329 327 325 324 322 321 319 317 316